Weather History for KGIC - April, 2014

Change the Weather History Date:

Sunday, April 20, 2014

  Actual Average (KLWS) Record (KLWS)
Temperature  
Mean Temperature 46 °F 52 °F  
Max Temperature 58 °F 63 °F 88 °F (1942)
Min Temperature 35 °F 41 °F 23 °F (1951)
Degree Days  
Heating Degree Days 18 13  
Month to date heating degree days 295  
Since 1 July heating degree days 4762  
Cooling Degree Days 0 0  
Month to date cooling degree days 0  
Year to date cooling degree days 0  
Moisture  
Dew Point 29 °F    
Average Humidity 54    
Maximum Humidity 76    
Minimum Humidity 28    
Precipitation  
Precipitation 0.07 in 0.05 in 0.52 in (1996)
Month to date precipitation 0.85  
Year to date precipitation 3.86  
Snow  
Snow 0.00 in 0.00 in 0.50 in (1961)
Month to date snowfall 0.0  
Since 1 July snowfall 10.5  
Snow Depth -    
Sea Level Pressure  
Sea Level Pressure 30.26 in    
Wind  
Wind Speed 5 mph (SW)    
Max Wind Speed 10 mph    
Max Gust Speed -    
Visibility 10 miles    
Events      
T = Trace of Precipitation, MM = Missing Value Source: NWS Daily Summary

Daily Weather History Graph

Daily Weather History Graph

Search for Another Location

Airport or City:

Trip Planner

Search our weather history database for the weather conditions in past years. The results will help you decide how hot, cold, wet, or windy it might be!

Date:

Astronomy

Apr. 20, 2014 Rise Set
Actual Time 5:49 AM PDT 7:38 PM PDT
Civil Twilight 5:17 AM PDT 8:10 PM PDT
Nautical Twilight 4:38 AM PDT 8:49 PM PDT
Astronomical Twilight 3:56 AM PDT 9:31 PM PDT
Moon 12:28 AM PDT (4/20) 10:08 AM PDT (4/20)
Length of Visible Light 14h 52m
Length of Day
13h 48m
Waning Gibbous, 67% of the Moon is Illuminated
Apr 20
Waning Gibbous
Apr 22
Last Quarter
Apr 28
New
May 6
First Quarter
May 14
Full

Hourly Weather History & Observations

Time (PDT) Temp. Windchill Dew Point Humidity Pressure Visibility Wind Dir Wind Speed Gust Speed Precip Events Conditions
12:15 AM 43.5 °F 38.9 °F 33.6 °F 68% 30.15 in 10.0 mi West 8.1 mph - N/A   Mostly Cloudy
12:35 AM 42.8 °F 39.3 °F 34.2 °F 72% 30.17 in 10.0 mi WNW 5.8 mph - N/A   Mostly Cloudy
12:55 AM 41.7 °F 39.8 °F 34.5 °F 76% 30.18 in 10.0 mi West 3.5 mph - N/A   Mostly Cloudy
1:15 AM 42.1 °F 40.2 °F 34.0 °F 73% 30.19 in 10.0 mi West 3.5 mph - N/A   Mostly Cloudy
1:35 AM 42.1 °F 39.2 °F 33.4 °F 71% 30.20 in 10.0 mi SW 4.6 mph - N/A   Scattered Clouds
1:55 AM 41.5 °F 39.6 °F 31.8 °F 68% 30.21 in 10.0 mi SSW 3.5 mph - N/A   Mostly Cloudy
2:15 AM 40.1 °F 36.1 °F 31.5 °F 71% 30.21 in 10.0 mi SW 5.8 mph - N/A   Scattered Clouds
2:35 AM 39.0 °F 35.7 °F 30.6 °F 72% 30.22 in 10.0 mi SW 4.6 mph - N/A   Clear
2:55 AM 38.7 °F 32.9 °F 30.0 °F 71% 30.23 in 10.0 mi SSW 8.1 mph - N/A   Clear
3:15 AM 39.4 °F 33.8 °F 29.7 °F 68% 30.23 in 10.0 mi SSW 8.1 mph - N/A   Clear
3:35 AM 39.6 °F - 28.8 °F 65% 30.24 in 10.0 mi Calm Calm - N/A   Clear
3:55 AM 40.1 °F 36.1 °F 27.9 °F 62% 30.24 in 10.0 mi SW 5.8 mph - N/A   Clear
4:15 AM 39.6 °F 34.0 °F 28.2 °F 64% 30.25 in 10.0 mi WSW 8.1 mph - N/A   Clear
4:35 AM 38.5 °F 31.6 °F 28.6 °F 68% 30.25 in 10.0 mi WSW 10.4 mph - N/A   Clear
4:55 AM 37.0 °F 33.3 °F 28.6 °F 71% 30.26 in 10.0 mi NE 4.6 mph - N/A   Clear
5:15 AM 38.7 °F 36.3 °F 27.9 °F 65% 30.26 in 10.0 mi WSW 3.5 mph - N/A   Scattered Clouds
5:40 AM 36.0 °F 30.3 °F 28.0 °F 73% 30.26 in 10.0 mi SSW 6.9 mph - N/A   Clear
5:55 AM 35.1 °F 29.3 °F 28.2 °F 76% 30.27 in 10.0 mi SW 6.9 mph - N/A   Clear
6:15 AM 36.7 °F 32.9 °F 27.9 °F 70% 30.28 in 10.0 mi South 4.6 mph - N/A   Clear
6:35 AM 36.5 °F 31.0 °F 27.9 °F 71% 30.27 in 10.0 mi SW 6.9 mph - N/A   Clear
6:55 AM 37.8 °F 34.2 °F 28.6 °F 69% 30.29 in 10.0 mi South 4.6 mph - N/A   Clear
7:15 AM 39.4 °F 37.2 °F 29.8 °F 69% 30.29 in 10.0 mi SW 3.5 mph - N/A   Clear
7:35 AM 41.2 °F 37.3 °F 30.4 °F 65% 30.30 in 10.0 mi WSW 5.8 mph - N/A   Clear
7:55 AM 42.4 °F 39.6 °F 31.8 °F 66% 30.30 in 10.0 mi WNW 4.6 mph - N/A   Clear
8:15 AM 43.2 °F 39.7 °F 31.5 °F 63% 30.31 in 10.0 mi West 5.8 mph - N/A   Clear
8:35 AM 44.1 °F 40.1 °F 29.5 °F 57% 30.31 in 10.0 mi WSW 6.9 mph - N/A   Clear
8:55 AM 44.6 °F 41.4 °F 30.0 °F 57% 30.31 in 10.0 mi West 5.8 mph - N/A   Clear
9:15 AM - - - N/A% - - North - - N/A   Unknown
9:35 AM 45.9 °F 43.6 °F 29.7 °F 53% 30.31 in 10.0 mi West 4.6 mph - N/A   Clear
10:15 AM 47.1 °F - 29.7 °F 51% 30.32 in 10.0 mi West 5.8 mph - N/A   Clear
10:35 AM 48.0 °F - 30.4 °F 51% 30.32 in 10.0 mi WNW 5.8 mph - N/A   Clear
10:55 AM 48.2 °F - 28.9 °F 47% 30.32 in 10.0 mi West 5.8 mph - N/A   Clear
11:15 AM 48.6 °F - 27.9 °F 45% 30.32 in 10.0 mi West 4.6 mph - N/A   Clear
11:35 AM 49.3 °F - 27.5 °F 43% 30.31 in 10.0 mi Calm Calm - N/A   Clear
11:55 AM 49.6 °F - 27.0 °F 41% 30.31 in 10.0 mi NNE 6.9 mph - N/A   Clear
12:15 PM 50.0 °F - 26.4 °F 40% 30.31 in 10.0 mi Calm Calm - N/A   Clear
12:35 PM 50.5 °F - 27.1 °F 40% 30.30 in 10.0 mi Calm Calm - N/A   Clear
12:55 PM 51.8 °F - 25.9 °F 37% 30.30 in 10.0 mi Calm Calm - N/A   Clear
1:15 PM 52.2 °F - 26.2 °F 37% 30.29 in 10.0 mi Calm Calm - N/A   Clear
1:35 PM 52.7 °F - 25.7 °F 35% 30.29 in 10.0 mi Calm Calm - N/A   Clear
1:55 PM 54.0 °F - 28.0 °F 37% 30.29 in 10.0 mi Calm Calm - N/A   Clear
2:15 PM 53.8 °F - 27.5 °F 36% 30.28 in 10.0 mi SW 3.5 mph - N/A   Clear
2:35 PM 54.1 °F - 28.2 °F 37% 30.27 in 10.0 mi ENE 5.8 mph - N/A   Clear
2:55 PM 54.5 °F - 27.5 °F 35% 30.27 in 10.0 mi North 3.5 mph - N/A   Clear
3:15 PM 55.4 °F - 28.4 °F 36% 30.27 in 10.0 mi ENE 5.8 mph - N/A   Clear
3:35 PM 55.4 °F - 28.2 °F 35% 30.27 in 10.0 mi Calm Calm - N/A   Clear
3:55 PM 55.8 °F - 28.2 °F 35% 30.27 in 10.0 mi NNE 4.6 mph - N/A   Clear
4:15 PM 56.7 °F - 27.5 °F 33% 30.27 in 10.0 mi Calm Calm - N/A   Clear
4:35 PM 56.8 °F - 25.7 °F 30% 30.27 in 10.0 mi WNW 6.9 mph - N/A   Clear
4:55 PM 58.1 °F - 24.6 °F 28% 30.26 in 10.0 mi West 3.5 mph - N/A   Clear
5:15 PM 57.7 °F - 27.5 °F 31% 30.27 in 10.0 mi NE 5.8 mph - N/A   Clear
5:35 PM 56.1 °F - 28.9 °F 35% 30.26 in 10.0 mi ENE 10.4 mph - N/A   Clear
5:55 PM 55.6 °F - 28.4 °F 35% 30.26 in 10.0 mi ENE 6.9 mph - N/A   Clear
6:15 PM 55.4 °F - 27.7 °F 35% 30.26 in 10.0 mi ENE 6.9 mph - N/A   Clear
6:35 PM 54.9 °F - 28.0 °F 36% 30.26 in 10.0 mi East 6.9 mph - N/A   Clear
6:55 PM 53.8 °F - 28.8 °F 38% 30.25 in 10.0 mi East 6.9 mph - N/A   Clear
7:10 PM 52.0 °F - 30.2 °F 43% 30.25 in 10.0 mi East 6.9 mph - N/A   Clear
7:35 PM 48.9 °F - 31.5 °F 51% 30.25 in 10.0 mi ESE 5.8 mph - N/A   Clear
7:55 PM 48.4 °F - 31.8 °F 53% 30.25 in 10.0 mi SE 6.9 mph - N/A   Clear
8:15 PM 46.9 °F - 32.4 °F 57% 30.25 in 10.0 mi SE 6.9 mph - N/A   Clear
8:35 PM 46.0 °F 43.1 °F 31.8 °F 58% 30.25 in 7.0 mi ESE 5.8 mph - N/A   Clear
8:55 PM 46.2 °F 42.7 °F 31.1 °F 56% 30.25 in 10.0 mi ESE 6.9 mph - N/A   Clear
9:15 PM 45.0 °F 41.8 °F 31.8 °F 60% 30.25 in 10.0 mi ESE 5.8 mph - N/A   Clear
9:35 PM 44.2 °F 41.0 °F 31.6 °F 61% 30.25 in 10.0 mi SE 5.8 mph - N/A   Clear
9:55 PM 43.7 °F - 31.8 °F 63% 30.24 in 10.0 mi Calm Calm - N/A   Clear
10:15 PM 42.3 °F 40.5 °F 31.8 °F 67% 30.24 in 10.0 mi West 3.5 mph - N/A   Clear
10:35 PM 40.8 °F 37.8 °F 31.8 °F 70% 30.24 in 10.0 mi SSW 4.6 mph - N/A   Clear
10:55 PM 40.6 °F 36.0 °F 31.3 °F 69% 30.24 in 10.0 mi SSW 6.9 mph - N/A   Clear
11:15 PM 41.7 °F 38.0 °F 30.7 °F 65% 30.24 in 10.0 mi SSW 5.8 mph - N/A   Clear
11:35 PM 41.5 °F 37.8 °F 30.2 °F 64% 30.24 in 10.0 mi SSW 5.8 mph - N/A   Clear
11:55 PM 42.4 °F 39.6 °F 29.7 °F 61% 30.24 in 10.0 mi South 4.6 mph - N/A   Clear